Beatrice, NE

9:08 AM CST on December 05, 2016 (GMT -0600)
Beatrice Municipal

Weather History for KBIE - March, 2013

Change the Weather History Date:

Friday, March 15, 2013

  Actual Average Record
Temperature  
Mean Temperature 55 °F -  
Max Temperature 75 °F 55 °F 82 °F (2003)
Min Temperature 35 °F 31 °F 1 °F (1949)
Degree Days  
Heating Degree Days 10    
Growing Degree Days 5 (Base 50)    
Moisture  
Dew Point 34 °F    
Average Humidity 55    
Maximum Humidity 82    
Minimum Humidity 19    
Precipitation  
Precipitation 0.00 in - - ()
Sea Level Pressure  
Sea Level Pressure 29.83 in    
Wind  
Wind Speed 5 mph (NE)    
Max Wind Speed 18 mph    
Max Gust Speed 26 mph    
Visibility 10 miles    
Events      
Averages and records for this station are not official NWS values.
T = Trace of Precipitation, MM = Missing Value Source: NWS Daily Summary

Daily Weather History Graph

Daily Weather History Graph

Search for Another Location

Airport or City:

Trip Planner

Search our weather history database for the weather conditions in past years. The results will help you decide how hot, cold, wet, or windy it might be!

Date:

Astronomy

Mar. 15, 2013 Rise Set
Actual Time 7:38 AM CDT 7:34 PM CDT
Civil Twilight 7:11 AM CDT 8:01 PM CDT
Nautical Twilight 6:39 AM CDT 8:32 PM CDT
Astronomical Twilight 6:07 AM CDT 9:04 PM CDT
Moon 9:28 AM CDT (3/15) 11:49 PM CDT (3/15)
Length of Visible Light 12h 50m
Length of Day
11h 56m
Waxing Crescent, 15% of the Moon is Illuminated
Mar 15
Waxing Crescent
Mar 19
First Quarter
Mar 27
Full
Apr 2
Last Quarter
Apr 10
New

Hourly Weather History & Observations

Time (CDT) Temp. Windchill Dew Point Humidity Pressure Visibility Wind Dir Wind Speed Gust Speed Precip Events Conditions
12:15 AM 40.8 °F - 33.3 °F 74% 30.07 in 10.0 mi Calm Calm - N/A   Clear
12:35 AM 40.6 °F - 32.5 °F 73% 30.06 in 10.0 mi Calm Calm - N/A   Clear
12:55 AM 40.5 °F - 32.4 °F 73% 30.05 in 10.0 mi Calm Calm - N/A   Clear
1:15 AM 40.3 °F 38.2 °F 33.1 °F 75% 30.04 in 10.0 mi East 3.5 mph - N/A   Clear
1:35 AM 38.7 °F - 32.7 °F 79% 30.03 in 10.0 mi Calm Calm - N/A   Clear
1:55 AM 39.2 °F - 32.0 °F 75% 30.03 in 10.0 mi Calm Calm - N/A   Clear
2:15 AM 37.4 °F - 31.3 °F 79% 30.02 in 10.0 mi Calm Calm - N/A   Clear
2:35 AM 37.0 °F - 31.8 °F 81% 30.01 in 10.0 mi Calm Calm - N/A   Clear
2:55 AM 36.7 °F - 31.6 °F 82% 30.00 in 10.0 mi Calm Calm - N/A   Clear
3:15 AM 35.2 °F 32.4 °F 30.0 °F 81% 29.99 in 10.0 mi SSW 3.5 mph - N/A   Clear
3:35 AM 37.4 °F 34.9 °F 32.0 °F 81% 29.99 in 10.0 mi SSE 3.5 mph - N/A   Clear
3:55 AM 39.2 °F 37.0 °F 32.0 °F 75% 29.97 in 10.0 mi South 3.5 mph - N/A   Clear
4:15 AM 39.7 °F 37.6 °F 32.0 °F 74% 29.96 in 10.0 mi SE 3.5 mph - N/A   Clear
4:35 AM 38.1 °F 34.6 °F 32.0 °F 79% 29.95 in 10.0 mi ESE 4.6 mph - N/A   Clear
4:55 AM 37.8 °F 35.3 °F 31.8 °F 79% 29.95 in 10.0 mi SSE 3.5 mph - N/A   Clear
5:15 AM 37.8 °F 35.3 °F 32.0 °F 80% 29.93 in 10.0 mi SSE 3.5 mph - N/A   Clear
5:35 AM 37.9 °F - 31.6 °F 78% 29.92 in 10.0 mi Calm Calm - N/A   Clear
5:55 AM 37.9 °F - 31.8 °F 79% 29.91 in 10.0 mi Calm Calm - N/A   Clear
6:15 AM 37.2 °F 34.7 °F 31.1 °F 79% 29.91 in 10.0 mi South 3.5 mph - N/A   Clear
6:35 AM 36.9 °F 34.3 °F 31.1 °F 80% 29.89 in 10.0 mi SSE 3.5 mph - N/A   Clear
6:55 AM 38.8 °F 36.5 °F 32.0 °F 76% 29.88 in 10.0 mi South 3.5 mph - N/A   Clear
7:15 AM 39.2 °F 35.9 °F 32.0 °F 75% 29.88 in 10.0 mi South 4.6 mph - N/A   Clear
7:35 AM 40.1 °F 38.0 °F 32.2 °F 73% 29.87 in 10.0 mi South 3.5 mph - N/A   Clear
7:55 AM 41.0 °F 37.1 °F 32.9 °F 73% 29.87 in 10.0 mi SSW 5.8 mph - N/A   Clear
8:15 AM 41.0 °F 38.0 °F 33.6 °F 75% 29.87 in 10.0 mi SSW 4.6 mph - N/A   Clear
8:35 AM 41.9 °F 39.0 °F 34.9 °F 76% 29.86 in 10.0 mi South 4.6 mph - N/A   Clear
8:55 AM 44.2 °F 41.8 °F 35.4 °F 71% 29.85 in 10.0 mi South 4.6 mph - N/A   Clear
9:15 AM 45.7 °F 44.4 °F 35.6 °F 68% 29.85 in 10.0 mi South 3.5 mph - N/A   Clear
9:35 AM 47.8 °F - 36.0 °F 63% 29.83 in 10.0 mi South 5.8 mph - N/A   Clear
10:55 AM 64.6 °F - 33.8 °F 32% 29.80 in 10.0 mi West 11.5 mph - N/A   Clear
11:15 AM 65.8 °F - 32.5 °F 29% 29.80 in 10.0 mi West 12.7 mph - N/A   Clear
11:35 AM 67.6 °F - 32.2 °F 27% 29.78 in 10.0 mi West 13.8 mph - N/A   Clear
11:55 AM 69.1 °F - 32.4 °F 26% 29.78 in 10.0 mi West 11.5 mph - N/A   Clear
12:15 PM 70.3 °F - 32.7 °F 25% 29.78 in 10.0 mi NW 12.7 mph - N/A   Clear
12:35 PM 70.3 °F - 32.7 °F 25% 29.77 in 10.0 mi NW 9.2 mph - N/A   Clear
12:55 PM 70.7 °F - 31.5 °F 23% 29.76 in 10.0 mi NW 3.5 mph - N/A   Clear
1:15 PM 70.7 °F - 31.6 °F 24% 29.76 in 10.0 mi West 4.6 mph - N/A   Clear
1:35 PM 72.9 °F - 31.8 °F 22% 29.76 in 10.0 mi West 5.8 mph - N/A   Clear
1:55 PM 73.9 °F - 31.6 °F 21% 29.75 in 10.0 mi WNW 6.9 mph - N/A   Clear
2:15 PM 74.8 °F - 29.5 °F 19% 29.74 in 10.0 mi NNW 3.5 mph - N/A   Clear
2:35 PM 74.7 °F - 29.3 °F 19% 29.73 in 10.0 mi North 6.9 mph - N/A   Clear
2:55 PM 73.6 °F - 30.7 °F 21% 29.72 in 10.0 mi North 5.8 mph - N/A   Clear
3:15 PM 73.6 °F - 31.1 °F 21% 29.70 in 10.0 mi NNE 4.6 mph - N/A   Clear
3:35 PM 73.9 °F - 32.0 °F 21% 29.69 in 10.0 mi NNE 4.6 mph - N/A   Clear
3:55 PM 73.4 °F - 32.2 °F 22% 29.69 in 10.0 mi NE 5.8 mph - N/A   Clear
4:15 PM 73.2 °F - 31.5 °F 22% 29.69 in 10.0 mi NE 3.5 mph - N/A   Clear
4:35 PM 74.3 °F - 31.1 °F 20% 29.69 in 10.0 mi East 3.5 mph - N/A   Clear
4:55 PM 75.4 °F - 30.4 °F 19% 29.69 in 10.0 mi NE 6.9 mph - N/A   Clear
5:15 PM 75.0 °F - 30.6 °F 20% 29.69 in 10.0 mi NNE 5.8 mph - N/A   Clear
5:35 PM 75.2 °F - 31.1 °F 20% 29.68 in 10.0 mi NE 5.8 mph - N/A   Clear
5:55 PM 74.3 °F - 30.7 °F 20% 29.69 in 10.0 mi NE 9.2 mph - N/A   Clear
6:15 PM 73.0 °F - 32.4 °F 22% 29.68 in 10.0 mi NNE 13.8 mph - N/A   Clear
6:35 PM 67.5 °F - 37.4 °F 33% 29.69 in 10.0 mi NNE 13.8 mph - N/A   Clear
6:55 PM 65.1 °F - 38.3 °F 37% 29.69 in 10.0 mi NNE 12.7 mph - N/A   Clear
7:15 PM 63.1 °F - 38.7 °F 40% 29.69 in 10.0 mi NNE 11.5 mph - N/A   Clear
7:35 PM 59.9 °F - 39.0 °F 46% 29.71 in 10.0 mi NNE 11.5 mph - N/A   Clear
7:55 PM 57.6 °F - 39.9 °F 52% 29.71 in 10.0 mi NNE 10.4 mph - N/A   Clear
8:15 PM 55.4 °F - 40.5 °F 57% 29.71 in 10.0 mi NNE 8.1 mph - N/A   Clear
8:35 PM 53.6 °F - 41.4 °F 63% 29.71 in 10.0 mi NE 6.9 mph - N/A   Clear
8:55 PM 52.5 °F - 42.1 °F 68% 29.72 in 10.0 mi NE 11.5 mph - N/A   Clear
9:15 PM 52.0 °F - 42.8 °F 71% 29.73 in 10.0 mi NE 11.5 mph - N/A   Clear
9:35 PM 50.5 °F - 42.3 °F 73% 29.76 in 10.0 mi NNE 16.1 mph 20.7 mph N/A   Clear
9:55 PM 49.5 °F - 41.9 °F 75% 29.77 in 10.0 mi NNE 16.1 mph - N/A   Clear
10:15 PM 48.6 °F - 41.0 °F 75% 29.77 in 10.0 mi NNE 13.8 mph - N/A   Clear
10:35 PM 48.0 °F - 40.6 °F 76% 29.79 in 10.0 mi NNE 12.7 mph - N/A   Clear
10:55 PM 47.8 °F - 40.6 °F 76% 29.80 in 10.0 mi North 15.0 mph 20.7 mph N/A   Clear
11:15 PM 47.3 °F - 40.6 °F 78% 29.80 in 10.0 mi North 15.0 mph 20.7 mph N/A   Clear
11:35 PM 46.8 °F - 40.5 °F 79% 29.81 in 7.0 mi North 18.4 mph 21.9 mph N/A   Clear
11:55 PM 46.8 °F - 40.3 °F 78% 29.82 in 7.0 mi North 18.4 mph 26.5 mph N/A   Clear